TimeCST,TemperatureF,Dew PointF,Humidity,Sea Level PressureIn,VisibilityMPH,Wind Direction,Wind SpeedMPH,Gust SpeedMPH,PrecipitationIn,Events,Conditions,WindDirDegrees,DateUTC
12:14 AM,32.0,28.4,87,29.88,10.0,SW,10.4,-,N/A,,Scattered Clouds,230,2013-01-09 06:14:00
12:34 AM,33.8,28.4,81,29.88,10.0,SW,11.5,16.1,N/A,,Mostly Cloudy,230,2013-01-09 06:34:00
12:54 AM,33.8,28.4,81,29.90,10.0,WSW,11.5,16.1,N/A,,Mostly Cloudy,250,2013-01-09 06:54:00
1:14 AM,35.6,28.4,75,29.90,10.0,West,10.4,-,N/A,,Overcast,260,2013-01-09 07:14:00
1:33 AM,35.6,28.4,75,29.89,10.0,SW,10.4,-,N/A,,Overcast,230,2013-01-09 07:33:00
1:54 AM,35.6,28.4,75,29.90,10.0,SW,9.2,-,N/A,,Scattered Clouds,220,2013-01-09 07:54:00
2:14 AM,33.8,28.4,81,29.90,10.0,SW,8.1,-,N/A,,Clear,220,2013-01-09 08:14:00
2:33 AM,33.8,28.4,81,29.90,10.0,SW,10.4,-,N/A,,Clear,230,2013-01-09 08:33:00
2:54 AM,33.8,28.4,81,29.90,10.0,SW,8.1,-,N/A,,Clear,220,2013-01-09 08:54:00
3:14 AM,33.8,28.4,81,29.91,10.0,SW,10.4,-,N/A,,Clear,220,2013-01-09 09:14:00
3:33 AM,33.8,28.4,81,29.91,10.0,SW,12.7,-,N/A,,Clear,230,2013-01-09 09:33:00
3:54 AM,35.6,28.4,75,29.91,10.0,WSW,12.7,20.7,N/A,,Clear,240,2013-01-09 09:54:00
4:14 AM,35.6,28.4,75,29.91,10.0,WSW,17.3,27.6,N/A,,Clear,250,2013-01-09 10:14:00
4:34 AM,35.6,28.4,75,29.93,10.0,WSW,15.0,21.9,N/A,,Clear,250,2013-01-09 10:34:00
4:54 AM,35.6,26.6,70,29.94,10.0,West,19.6,26.5,N/A,,Clear,260,2013-01-09 10:54:00
5:14 AM,35.6,26.6,70,29.95,10.0,West,19.6,31.1,N/A,,Scattered Clouds,260,2013-01-09 11:14:00
5:34 AM,35.6,26.6,70,29.96,10.0,West,13.8,26.5,N/A,,Mostly Cloudy,260,2013-01-09 11:34:00
5:54 AM,35.6,26.6,70,29.97,10.0,West,21.9,28.8,N/A,,Mostly Cloudy,260,2013-01-09 11:54:00
6:14 AM,35.6,26.6,70,29.99,10.0,West,19.6,25.3,N/A,,Overcast,260,2013-01-09 12:14:00
6:45 AM,33.8,24.8,70,30.02,10.0,West,18.4,33.4,N/A,,Scattered Clouds,270,2013-01-09 12:45:00
6:54 AM,33.8,24.8,70,30.02,10.0,West,21.9,32.2,N/A,,Clear,270,2013-01-09 12:54:00
7:45 AM,32.0,24.8,75,30.05,10.0,West,20.7,27.6,N/A,,Clear,280,2013-01-09 13:45:00
8:45 AM,30.2,21.2,69,30.10,10.0,West,21.9,27.6,N/A,,Clear,280,2013-01-09 14:45:00
9:45 AM,30.2,21.2,69,30.13,10.0,West,19.6,24.2,N/A,,Clear,280,2013-01-09 15:45:00
10:45 AM,30.2,21.2,69,30.15,10.0,West,13.8,-,N/A,,Clear,270,2013-01-09 16:45:00
12:45 PM,33.8,21.2,60,30.23,10.0,WSW,16.1,20.7,N/A,,Clear,240,2013-01-09 18:45:00
1:45 PM,33.8,21.2,60,30.26,10.0,WSW,12.7,20.7,N/A,,Clear,250,2013-01-09 19:45:00
2:45 PM,35.6,21.2,56,30.30,10.0,WSW,9.2,16.1,N/A,,Clear,250,2013-01-09 20:45:00
3:45 PM,35.6,21.2,56,30.31,10.0,WSW,9.2,-,N/A,,Clear,250,2013-01-09 21:45:00
4:45 PM,33.8,21.2,60,30.34,10.0,WSW,6.9,-,N/A,,Clear,240,2013-01-09 22:45:00
5:45 PM,30.2,23.0,75,30.32,10.0,Calm,Calm,-,N/A,,Clear,0,2013-01-09 23:45:00
8:45 PM,26.6,21.2,80,30.30,10.0,SE,4.6,-,N/A,,Clear,140,2013-01-10 02:45:00
9:14 PM,28.4,21.2,74,30.30,10.0,SE,5.8,-,N/A,,Clear,140,2013-01-10 03:14:00
9:34 PM,24.8,21.2,86,30.30,10.0,SSE,6.9,-,N/A,,Clear,160,2013-01-10 03:34:00
9:54 PM,28.4,23.0,80,30.29,10.0,SE,3.5,-,N/A,,Clear,130,2013-01-10 03:54:00
10:14 PM,26.6,23.0,86,30.28,10.0,SE,5.8,-,N/A,,Clear,130,2013-01-10 04:14:00
10:34 PM,28.4,23.0,80,30.28,10.0,SE,4.6,-,N/A,,Clear,140,2013-01-10 04:34:00
10:54 PM,26.6,23.0,86,30.28,10.0,SE,6.9,-,N/A,,Clear,140,2013-01-10 04:54:00
11:14 PM,28.4,23.0,80,30.28,10.0,SSE,8.1,-,N/A,,Clear,150,2013-01-10 05:14:00
11:34 PM,28.4,23.0,80,30.28,10.0,SSE,9.2,-,N/A,,Clear,150,2013-01-10 05:34:00
11:54 PM,28.4,23.0,80,30.28,10.0,SSE,6.9,-,N/A,,Clear,150,2013-01-10 05:54:00